一网星座-0178星 (ONEWEB-0178 )

导读

ONEWEB-0178是英国OneWeb卫星互联网项目的组网卫星,于2021年3月25日发射升空,是OneWeb打造全球低轨卫星互联网络的组成单元。 OneWeb计划部署近600余颗近地轨道卫星,构建覆盖全球的宽带互联网服务,该项目依托英国企业推进,填补欧洲卫星互联网布局,不过整体项目在规模、成本和技术层面仍和美国星链存在差距,ONEWEB-0178在轨承担网络传输节点功能,助力全球偏远区域通信覆盖。

Basic Information
目录编号:
48075
目录名称:
ONEWEB-0178
国际标识:
2021-025AK
轨道中心:
EARTH
卫星名称:
一网星座-0178星
卫星全名:
一网星座-0178星 (ONEWEB-0178 )
卫星状态:
在轨 (已飞行1907 天)
发射日期:
2021-03-25 UTC
国别 :
英国 (GB)
星等 :
--
Orbit Information
数据来源 国际轨道数据 AOE轨道数据
星历时间 2026-06-14T06:00:40+0800
13小时前
查看轨道信息
2026-06-08T07:00:00+0800
6天前
查看轨道信息
半长轴 7587.91km 7587.909km
偏心率 0.0001691 0.0001427
轨道倾角 87.894° 87.894°
近地点辐角 104.108° 99.021°
升交点赤经 320.886° 322.074°
平近点角 256.024° 181.008°
近地点 1208.489km 1208.689km
远地点 1211.057km 1210.855km
周期 109.633分钟 109.633分钟
每日圈数 13.134681 13.134685
Detailed Information
平衡模式:
三轴稳定
覆盖范围:
全球
运营商:
一网卫星公司
运营商所在国:
英国
制造商(研发单位):
一网卫星公司
制造商所在国:
英国
使用方式:
暂无
Satellite Introduction
OneWeb卫星网络由648颗重约125公斤的微型卫星组成,运行在1200公里的轨道上。 每颗卫星都能够提供至少每秒8千兆位的吞吐量,以使用其高吞吐量的Ku频段有效载荷为家庭和移动平台提供互联网接入。该卫星仍在工作。
2D Orbit Map
3D Orbit Map
Orbit Altitude Analysis Chart
Orbit Inclination Analysis Chart
Orbit Comprehensive Analysis Chart
View Comprehensive Chart